N5CNB-2 Weather Reports


time (UTC)temp
C
wind
direction
speed
KPH
gust
KPH
rain 1hr
cm
rain 24hr
cm
rain mn
cm
humidity
%
barometer
mb
20260502123050 10 299 1.6 6.4 0.00 1.02 0.00 95 1020.2
20260502121601 10 308 1.6 3.2 0.00 1.02 0.00 95 1019.9
20260502114554 -17 0.0 0.0 0.00 1.02 0.00 1019.5
20260502113052 -17 0.0 0.0 0.00 1.02 0.00 1019.4
20260502111553 -17 0.0 0.0 0.00 1.02 0.00 1019.1
20260502110049 -17 0.0 0.0 0.00 1.02 0.00 1018.5
20260502104553 -17 0.0 0.0 0.00 1.02 0.00 1018.3
20260502103053 -17 0.0 0.0 0.00 1.02 0.00 1018.3
20260502101555 -17 0.0 0.0 0.00 1.02 0.00 1018.2
20260502100112 -17 0.0 0.0 0.00 1.02 0.00 1018.1
20260502070056 -17 0.0 0.0 0.00 1.02 0.00 1016.6
20260502064551 -17 0.0 0.0 0.00 1.02 0.00 1016.7
20260502063052 -17 0.0 0.0 0.00 1.02 0.00 1016.8
20260502061548 -17 0.0 0.0 0.00 1.02 0.00 1017.0
20260502060051 -17 0.0 0.0 0.00 1.02 0.00 1016.8
20260502054556 -17 0.0 0.0 0.00 1.02 0.00 1016.9
20260502053052 -17 0.0 0.0 0.00 1.02 0.00 1016.9
20260502051625 -17 0.0 0.0 0.00 1.02 0.00 1016.8
20260502050050 -17 0.0 0.0 0.00 1.02 0.00 1016.7
20260502044601 -17 0.0 0.0 0.00 1.02 1.02 1016.5
20260502043106 12 42 6.4 17.7 0.00 1.02 1.02 93 1016.4
20260502041551 12 327 6.4 17.7 0.00 1.02 1.02 93 1016.3
20260502040057 12 30 6.4 19.3 0.00 1.02 1.02 94 1016.3
20260502034557 12 46 4.8 14.5 0.00 1.02 1.02 94 1016.2
20260502033057 12 352 6.4 17.7 0.03 1.02 1.02 94 1016.0
20260502031608 12 360 3.2 12.9 0.03 1.02 1.02 94 1015.8
20260502030050 12 30 9.7 20.9 0.03 1.02 1.02 94 1015.9
20260502024556 12 352 6.4 17.7 0.03 1.02 1.02 94 1015.9
20260502023053 12 346 9.7 22.5 0.00 0.99 0.99 95 1015.4
20260502021556 13 10 4.8 17.7 0.00 0.99 0.99 95 1015.2
20260502020104 13 48 9.7 20.9 0.00 0.99 0.99 95 1014.6
20260502014551 13 51 8.0 20.9 0.00 0.99 0.99 95 1013.9
20260502013056 13 32 6.4 19.3 0.03 0.99 0.99 95 1013.6
20260502011552 13 352 8.0 24.1 0.03 0.99 0.99 95 1013.4
20260502010055 13 346 9.7 22.5 0.10 0.99 0.99 95 1013.6
20260502004553 13 16 8.0 17.7 0.10 0.99 0.99 96 1013.5
20260502003053 13 9 6.4 19.3 0.15 0.97 0.97 96 1013.5
20260502001555 14 11 6.4 19.3 0.20 0.97 0.97 96 1013.9
20260501234600 14 11 6.4 16.1 0.15 0.89 0.89 96 1013.2
20260501233100 15 20 3.2 19.3 0.15 0.81 0.81 96 1013.2
20260501231600 15 360 1.6 11.3 0.10 0.76 0.76 96 1013.4
20260501230112 15 13 8.0 17.7 0.13 0.76 0.76 96 1012.1
20260501224559 15 24 4.8 14.5 0.20 0.74 0.74 95 1012.1
20260501223100 15 284 6.4 16.1 0.13 0.66 0.66 95 1012.5
20260501221557 15 25 8.0 24.1 0.13 0.66 0.66 95 1009.8
20260501220054 15 34 8.0 20.9 0.10 0.64 0.64 95 1010.6
20260501214604 15 333 9.7 22.5 0.00 0.53 0.53 95 1010.6
20260501213100 15 323 8.0 24.1 0.03 0.53 0.53 95 1010.0
20260501211554 15 12 8.0 24.1 0.05 0.53 0.53 95 1009.9
20260501210054 15 360 8.0 30.6 0.10 0.53 0.53 96 1010.3
20260501204557 15 307 9.7 22.5 0.13 0.53 0.53 96 1011.0
20260501203058 15 34 8.0 19.3 0.13 0.51 0.51 96 1010.7
20260501201602 15 284 9.7 25.7 0.13 0.48 0.48 96 1010.6
20260501200059 16 26 9.7 24.1 0.23 0.43 0.43 96 1010.6
20260501194602 16 17 6.4 12.9 0.36 0.41 0.41 97 1010.6
20260501193055 16 9 4.8 14.5 0.36 0.38 0.38 97 1010.3
20260501191604 16 27 6.4 20.9 0.33 0.36 0.36 96 1010.4
20260501190122 16 67 3.2 11.3 0.18 0.20 0.20 96 1010.2
20260501184553 16 14 4.8 9.7 0.03 0.05 0.05 96 1010.3
20260501183054 16 61 4.8 12.9 0.03 0.03 0.03 96 1009.6
20260501181556 16 86 4.8 17.7 0.03 0.03 0.03 97 1009.7
20260501180054 16 77 3.2 11.3 0.03 0.03 0.03 97 1009.9
20260501174602 16 63 6.4 22.5 0.03 0.03 0.03 97 1009.7
20260501173104 16 56 8.0 22.5 0.00 0.00 0.00 97 1008.5
20260501171559 -17 0.0 0.0 0.00 0.00 0.00 1009.2
20260501170052 -17 0.0 0.0 0.00 0.00 0.00 1011.0
20260501164553 -17 0.0 0.0 0.00 0.00 0.00 1012.8
20260501163057 -17 0.0 0.0 0.00 0.00 0.00 1012.7
20260501161552 -17 0.0 0.0 0.00 0.00 0.00 1012.6
20260501160056 -17 0.0 0.0 0.00 0.00 0.00 1012.5
20260501154607 -17 0.0 0.0 0.00 0.00 0.00 1012.4
20260501153052 -17 0.0 0.0 0.00 0.00 0.00 1013.3
20260501151550 -17 0.0 0.0 0.00 0.00 0.00 1012.8
20260501150051 -17 0.0 0.0 0.00 0.00 0.00 1012.9
20260501144552 -17 0.0 0.0 0.00 0.00 0.00 1012.8